Date String (YYYY-MM-DD hh:mm:ss) UTC,Instrument flags,Ambient pressure (hPa),Sample flow (lpm),Bypass flow (lpm),Sample temperature (°C),Ambient temperature (°C),ASC tube jacket temperature (°C),LED temperature (°C),Box temperature (°C),Sample RH (%),Span deviation,Mass concentration (μg/m³),Mass concentration (μg/m³),Mass concentration (μg/m³)
DateTimeUTC,F1_M11,P_M11,Q1_M11,Q2_M11,T1_M11,T2_M11,T3_M11,T4_M11,T5_M11,U1_M11,ZSPAN_M11,X0_M11,X2_M11,X1_M11
2022-12-12 23:00:00,,0808.1,5.00,0.00,24.2,22.8,00.0,33.1,26.2,08.6,0000.0,0011.10,0004.64,0003.96
2022-12-12 23:01:00,,0808.1,5.00,0.00,24.2,22.8,00.0,33.1,26.1,08.7,0000.0,0011.28,0004.63,0003.92
2022-12-12 23:02:00,,0808.0,5.00,0.00,24.2,22.8,00.0,33.1,26.2,08.7,0000.0,0011.16,0004.62,0003.86
2022-12-12 23:03:00,,0808.0,4.99,0.00,24.2,22.8,00.0,33.1,26.1,08.7,0000.0,0011.27,0004.53,0003.80
2022-12-12 23:04:00,,0808.0,5.01,0.00,24.2,22.8,00.0,33.1,26.2,08.8,0000.0,0011.05,0004.43,0003.74
2022-12-12 23:05:00,,0808.0,5.01,0.00,24.2,22.8,00.0,33.1,26.2,08.8,0000.0,0010.84,0004.37,0003.68
2022-12-12 23:06:00,,0808.0,5.00,0.00,24.2,22.8,00.0,33.1,26.1,08.8,0000.0,0010.19,0004.26,0003.60
2022-12-12 23:07:00,,0808.0,5.00,0.00,24.2,22.8,00.0,33.1,26.1,08.9,0000.0,0009.74,0004.17,0003.52
2022-12-12 23:08:00,,0808.0,4.99,0.00,24.2,22.8,00.0,33.1,26.1,08.9,0000.0,0009.89,0004.07,0003.44
2022-12-12 23:09:00,,0808.0,4.99,0.00,24.2,22.8,00.0,33.1,26.1,08.9,0000.0,0010.45,0004.00,0003.36
2022-12-12 23:10:00,,0808.1,5.00,0.00,24.2,22.7,00.0,33.0,26.1,09.0,0000.0,0010.32,0003.90,0003.28
2022-12-12 23:11:00,,0808.1,5.00,0.00,24.2,22.7,00.0,33.0,26.1,09.0,0000.0,0009.62,0003.76,0003.20
2022-12-12 23:12:00,,0808.2,5.01,0.00,24.2,22.6,00.0,33.0,26.0,09.1,0000.0,0009.03,0003.62,0003.10
2022-12-12 23:13:00,,0808.2,4.99,0.00,24.1,22.6,00.0,33.0,26.0,09.1,0000.0,0008.71,0003.51,0002.99
2022-12-12 23:14:00,,0808.2,5.00,0.00,24.1,22.6,00.0,33.0,26.0,09.1,0000.0,0008.28,0003.44,0002.89
2022-12-12 23:15:00,,0808.3,4.99,0.00,24.1,22.6,00.0,33.0,26.0,09.1,0000.0,0008.42,0003.44,0002.81
2022-12-12 23:16:00,,0808.3,5.00,0.00,24.1,22.6,00.0,33.0,26.0,09.2,0000.0,0008.31,0003.40,0002.74
2022-12-12 23:17:00,,0808.4,5.01,0.00,24.1,22.6,00.0,33.0,26.0,09.2,0000.0,0008.26,0003.39,0002.70
2022-12-12 23:18:00,,0808.4,5.00,0.00,24.1,22.6,00.0,33.0,26.0,09.2,0000.0,0008.82,0003.40,0002.66
2022-12-12 23:19:00,,0808.4,5.00,0.00,24.1,22.6,00.0,33.0,26.0,09.3,0000.0,0008.74,0003.38,0002.63
2022-12-12 23:20:00,,0808.5,4.99,0.00,24.1,22.6,00.0,33.0,26.0,09.3,0000.0,0008.03,0003.36,0002.61
2022-12-12 23:21:00,,0808.5,5.00,0.00,24.1,22.6,00.0,33.0,26.0,09.4,0000.0,0007.91,0003.34,0002.62
2022-12-12 23:22:00,,0808.4,5.00,0.00,24.1,22.6,00.0,33.0,26.1,09.3,0000.0,0007.88,0003.34,0002.63
2022-12-12 23:23:00,,0808.4,5.00,0.00,24.1,22.6,00.0,33.0,26.1,09.3,0000.0,0008.05,0003.40,0002.65
2022-12-12 23:24:00,,0808.4,5.00,0.00,24.1,22.7,00.0,33.0,26.0,09.3,0000.0,0007.99,0003.39,0002.65
2022-12-12 23:25:00,,0808.5,5.00,0.00,24.1,22.7,00.0,33.0,26.0,09.3,0000.0,0007.92,0003.40,0002.65
2022-12-12 23:26:00,,0808.6,5.01,0.00,24.1,22.7,00.0,33.0,26.0,09.4,0000.0,0007.81,0003.37,0002.64
2022-12-12 23:27:00,,0808.6,5.00,0.00,24.1,22.7,00.0,33.0,26.1,09.4,0000.0,0008.37,0003.39,0002.63
2022-12-12 23:28:00,,0808.6,4.99,0.00,24.1,22.7,00.0,32.9,26.0,09.4,0000.0,0009.31,0003.40,0002.63
2022-12-12 23:29:00,,0808.6,5.02,0.00,24.1,22.7,00.0,32.9,26.0,09.4,0000.0,0008.87,0003.39,0002.65
2022-12-12 23:30:00,,0808.7,4.99,0.00,24.1,22.7,00.0,32.9,26.0,09.4,0000.0,0009.46,0003.41,0002.65
2022-12-12 23:31:00,,0808.7,4.99,0.00,24.1,22.7,00.0,32.9,26.0,09.4,0000.0,0009.58,0003.43,0002.65
2022-12-12 23:32:00,,0808.7,5.00,0.00,24.1,22.7,00.0,32.9,26.0,09.4,0000.0,0009.64,0003.46,0002.67
2022-12-12 23:33:00,,0808.8,5.01,0.00,24.1,22.7,00.0,32.9,26.1,09.3,0000.0,0010.67,0003.53,0002.71
2022-12-12 23:34:00,,0808.8,5.00,0.00,24.1,22.6,00.0,32.9,26.0,09.2,0000.0,0011.09,0003.59,0002.79
2022-12-12 23:35:00,,0808.9,5.00,0.00,24.1,22.6,00.0,32.9,26.0,09.2,0000.0,0012.24,0003.69,0002.90
2022-12-12 23:36:00,,0808.9,5.00,0.00,24.1,22.5,00.0,32.9,25.9,09.1,0000.0,0013.29,0003.76,0003.01
2022-12-12 23:37:00,,0808.9,5.01,0.00,24.0,22.4,00.0,32.9,25.9,09.0,0000.0,0013.39,0003.85,0003.13
2022-12-12 23:38:00,,0809.0,5.01,0.00,24.0,22.5,00.0,32.9,25.9,09.1,0000.0,0013.38,0003.96,0003.22
2022-12-12 23:39:00,,0809.0,5.00,0.00,24.0,22.5,00.0,32.9,25.9,09.2,0000.0,0012.93,0004.05,0003.30
2022-12-12 23:40:00,,0809.0,5.00,0.00,24.0,22.4,00.0,32.9,25.9,09.1,0000.0,0012.84,0004.16,0003.38
2022-12-12 23:41:00,,0809.1,5.00,0.00,24.0,22.4,00.0,32.9,25.9,09.1,0000.0,0012.03,0004.29,0003.47
2022-12-12 23:42:00,,0809.1,5.00,0.00,24.0,22.3,00.0,32.9,25.9,09.1,0000.0,0012.57,0004.40,0003.56
2022-12-12 23:43:00,,0809.1,5.00,0.00,23.9,22.3,00.0,32.9,25.8,09.1,0000.0,0013.18,0004.52,0003.65
2022-12-12 23:44:00,,0809.1,5.01,0.00,23.9,22.2,00.0,32.9,25.8,09.1,0000.0,0012.78,0004.61,0003.72
2022-12-12 23:45:00,,0809.1,5.01,0.00,23.9,22.2,00.0,32.8,25.8,09.1,0000.0,0012.91,0004.63,0003.79
2022-12-12 23:46:00,,0809.1,5.00,0.00,23.9,22.2,00.0,32.8,25.8,09.2,0000.0,0012.42,0004.68,0003.84
2022-12-12 23:47:00,,0809.1,5.00,0.00,23.9,22.3,00.0,32.8,25.8,09.2,0000.0,0011.16,0004.69,0003.87
2022-12-12 23:48:00,,0809.0,5.00,0.00,23.9,22.3,00.0,32.8,25.8,09.2,0000.0,0011.20,0004.74,0003.91
2022-12-12 23:49:00,,0809.0,4.99,0.00,23.9,22.4,00.0,32.8,25.8,09.2,0000.0,0011.72,0004.78,0003.94
2022-12-12 23:50:00,,0809.1,5.00,0.00,23.9,22.4,00.0,32.8,25.8,09.2,0000.0,0011.47,0004.81,0003.97
2022-12-12 23:51:00,,0809.1,5.01,0.00,23.9,22.4,00.0,32.8,25.9,09.2,0000.0,0011.28,0004.83,0004.00
2022-12-12 23:52:00,,0809.1,5.01,0.00,23.9,22.4,00.0,32.8,25.9,09.3,0000.0,0012.15,0004.80,0004.01
2022-12-12 23:53:00,,0809.1,4.99,0.00,23.9,22.5,00.0,32.8,25.9,09.3,0000.0,0012.95,0004.82,0004.03
2022-12-12 23:54:00,,0809.1,5.00,0.00,23.9,22.4,00.0,32.8,25.9,09.3,0000.0,0012.38,0004.84,0004.06
2022-12-12 23:55:00,,0809.1,4.99,0.00,23.9,22.4,00.0,32.8,25.9,09.3,0000.1,0012.18,0004.86,0004.09
2022-12-12 23:56:00,,0809.0,5.01,0.00,23.9,22.5,00.0,32.8,25.9,09.4,0000.6,0011.73,0004.88,0004.11
2022-12-12 23:57:00,,0809.1,5.00,0.00,23.9,22.5,00.0,32.8,25.9,09.4,0000.0,0011.42,0004.86,0004.12
2022-12-12 23:58:00,,0809.0,4.99,0.00,23.9,22.5,00.0,32.8,25.9,09.4,0000.0,0011.50,0004.89,0004.15
2022-12-12 23:59:00,,0809.1,4.99,0.00,23.9,22.5,00.0,32.8,25.9,09.4,0000.0,0012.24,0004.98,0004.18
